Showing default

OPS 9314 (IDSCS 4), 2218

Orbit data source: Space-Track

OPS 9314 (IDSCS 4), 2218 is a payload satellite owned by USAF SSD (US) in GEO that was launched on Thu, 16 Jun 1966 UTC via a TITAN IIIC launch vehicle from the Air Force Eastern Test Range (AFETR). Payloads include a variety of satellites, spacecraft, and rockets equipped with specific instruments for various scientific and technological missions. These include communications satellites like Starlink; space stations such as the ISS; scientific satellites like the Hubble; Earth observation satellites from companies like Planet Labs, Umbra, and HawkEye 360; GPS; miniature CubeSats for education and research; and military/defense satellites.

Loading next visibility...
OPS 9314 (IDSCS 4) details
Identifier
2218, 1966-053E
Orbit
GEO
Last TLE update1 day ago
Origin
Flag of USUSAF SSD (US)
ManufacturerPhilco-Ford WDL
MissionNon-operational Defense Communications
Bus & MotorIDCSP, Unknown motor
Mass45 kg wet, 45 kg dry
Launch date (UTC)
1966-06-16 (59 years ago)
Launch vehicle
TITAN IIIC
Launch site
Air Force Eastern Test Range (AFETR)
Object type
Payload
Rocket body
Debris
Shape & HBRIco Poly, 0.9 m
Radar Cross Section0.926 m², Medium (>0.1 m² and < 1m²)

Expand to show TLE details & history

TLE from 1 day ago
0 OPS 9314 (IDSCS 4)
1 02218U 66053E   24355.20252330 -.00000115  00000-0  00000-0 0  9997
2 02218   7.5392  49.6380 0044770 185.2716 187.8205  1.07585745229559
Epoch: 2024-12-20T04:51Z
Definitive object data (Epoch: 2024-12-20T04:51:38.013Z)
Latitude1.70759°
Longitude-99.62211°
Altitude34,031.308 km
Speed3.134 km/s
True Right ascension04h 10m 13s
True Declination1° 42' 21"
Sunlit
Object was in daylight at TLE epoch
Visualization TLE readout
Latitude1.03113°
Longitude59.59977°
Altitude33,677.31 km
Speed3.161 km/s
Apparent Right ascension15h 07m 17s
Apparent Declination-5° 14' 49"
Sunlit
Object is in daylight
Visualization observer readout
Local Sidereal Time12:03:27
Azimuth125.697° SE
Elevation28.181°
Doppler factor1
Orbital elements
Apogee altitude34,034.494 km
Perigee altitude33,674.252 km
Semi-major axis40,232.51 km
Eccentricity0.004477
Inclination7.5392°
RAAN49.638°
Arg. of periapsis185.2716°
True anomaly187.75108°
Mean anomaly187.8205°
Eccentric anomaly187.78575°
Mean motion0.26895 °/min
BSTARUnknown
Orbital period1338.52 mins
Loading historical data...
2218 neighbors
Authenticating...
Loading maneuver chart data...
Loading historical data...
Loading historical data...
Loading historical data...
Loading historical data...
Loading historical data...
Loading historical data...
Loading historical data...

OPS 9314 (IDSCS 4) Visibility forecast

Observer location: undefined°, undefined

Span
Click to sort rows by Start time (UTC) header in descending order
Start Az.
Max El. time (UTC)
Max El. Az.
Max El.
End time (UTC)
End Az.
1342 mins2024-12-21 13:01:33.517Z125.712° SE2024-12-21 13:01:33.517Z125.712° SE25.272°2024-12-22 11:23:33.517Z105.615° ESE
|